Tangguo Guan

operational
NORAD ID: 43656 Int'l Des: 2018-081 Owner: ALIEX Country: CN
LEORETROGRADE

Tangguo Guanについて

説明を読み込み中...

リアルタイム位置

3D地球を読み込み中...

次回通過

高度履歴

Altitude vs Time

uPlot chart will show altitude changes over time

軌道要素

1 43656U 18081B 26063.15700373 .00000182 00000-0 71748-4 0 9997
2 43656 99.3721 332.7064 0204329 209.0888 149.8785 14.31820242384270
Epoch: Mar 4, 2026 • Age: 18 hours

現在のステータス

高度 754.5 km
速度 7.51 km/s
衛星直下点 -79.64°S, 42.12°W
打ち上げ日 Oct 24, 2018
運用期間 7.3 years
タイプ other

技術仕様

分類 Payload
質量 20.00 kg
乾燥質量 20.00 kg
総質量 1020.00 kg
長さ 0.30 m
直径 0.30 m
スパン 0.30 m
形状 Box
製造者 SAST
フェーズステータス Attached in Orbit
所有者/国 ALIEX/CN

大規模コンステレーション

Loading constellations...